Showing default

O3B FM15, 43231

Orbit data source: Space-Track

O3B FM15, 43231 is a payload satellite owned by O3B SES (JE) that was launched on Fri, 09 Mar 2018 UTC via a SOYUZ-ST-B launch vehicle from the French Guiana (FRGUI). Payload-class satellites include a variety of spacecraft equipped with specific instruments for various scientific and technological missions. These include communications satellites like Starlink; space stations such as the ISS; scientific satellites like the Hubble; Earth observation satellites from companies like Planet Labs, Umbra, and HawkEye 360; GPS; miniature CubeSats for education and research; and military/defense satellites.

Loading next visibility...
Identifier
43231, 2018-024A
Orbit
Active
Country
Flag of UnknownUnknown / O3B
Related business
Manufacturer
Thales Alenia
Mission
Operational Commercial Communications
Bus & Motor
PRISMA?, LS-400 AOCS?
Mass
700 kg wet, ~500 kg dry
Launch date (UTC)
2018-03-09 (8 years ago)
Launch vehicle
SOYUZ-ST-B
Launch site
French Guiana (FRGUI)
Object type
Payload
Rocket body
Debris
Shape & HBR
Trap Box + 2 Pan, 6.0 m
Radar Cross Section
21.980 m², Large (>1 m²)

Expand to show TLE details & history
Last TLE update: 17 hours ago

TLE from 17 hours ago
0 O3B FM15
1 43231U 18024A   26127.31514572 -.00000020  00000-0  00000+0 0  9996
2 43231   0.0512   3.9541 0002637  40.3177 315.7507  5.00115842148978
Epoch: 2026-05-07T07:33Z
TLE epoch observation values (Epoch: 2026-05-07T07:33:48.590Z)
Latitude
0.00022°
Longitude
21.38443°
Altitude
8,061.635 km
Speed
5.255 km/s
True Right ascension
23h 59m 59s
True Declination
0° 00' 01"
Sunlit
Object was in daylight at epoch
Visualization orbit readout
Latitude
Unknown
Longitude
Unknown
Altitude
Unknown
Speed
Unknown
Apparent Right ascension
Unknown
Apparent Declination
Unknown
Sunlit
N/A
Visualization observer readout
Local Sidereal Time
08:11:28
Azimuth
Unknown
Elevation
Unknown
Doppler factor
Unknown
Orbital elements
Apogee altitude
8,072.752 km
Perigee altitude
8,065.132 km
Semi-major axis
14,447.079 km
Eccentricity
0.00026
Inclination
0.0512°
RAAN
3.9541°
Arg. of periapsis
40.3177°
True anomaly
315.72961°
Mean anomaly
315.7507°
Eccentric anomaly
315.74016°
Mean motion
1.24989 °/min
Orbital period
288.02 mins
BSTAR
0
Loading maneuver chart data...
Computing Atmospheric mass density...
Loading historical data...
Loading historical data...
Loading historical data...
Loading historical data...
Loading historical data...
Loading historical data...
Loading historical data...
Other satellites on launch #24 in the year 2018 (2018-03-09 UTC)

Documentation

Showing up to 5 results
|